Theta_e
320 321 322 323 323 324 323 323 322 322 321 320 321 320 320 319 319 319 319 319 317 318 318 316 316 316 316 316 315 313 312 311 308 305 298 296 295 294 292 293 291 291 294
319 320 320 322 322 322 322 322 322 321 320 320 320 320 320 319 319 317 317 317 317 317 317 316 316 316 315 315 313 311 311 311 309 306 294 290 292 293 293 291 289 289 290
319 319 319 320 320 321 321 322 320 321 319 319 319 319 319 318 318 318 318 318 318 318 317 316 315 313 311 312 312 310 309 306 307 298 290 288 287 289 287 288 288 287 287
318 318 318 319 319 320 321 321 321 321 319 318 318 318 318 318 317 317 316 317 316 316 315 314 313 311 310 307 304 304 302 300 297 291 288 286 286 285 287 286 285 285 285
316 317 317 319 319 320 319 318 318 317 317 316 315 315 316 314 311 310 309 311 309 307 302 300 303 300 297 301 301 300 298 295 290 290 287 285 285 284 285 286 287 286 285
314 315 315 312 312 314 311 309 307 306 307 306 305 305 303 297 297 299 302 301 299 298 298 298 295 291 293 294 296 298 300 296 289 289 287 287 288 287 286 286 285 281 280
309 304 304 304 303 302 300 299 297 297 297 296 297 297 295 295 296 296 295 298 297 298 296 294 293 292 290 292 293 294 294 296 296 292 288 290 288 288 287 285 286 285 284
295 295 294 296 294 293 294 294 292 293 294 293 293 295 294 294 296 295 292 295 295 294 293 291 291 290 290 290 289 287 287 289 291 290 290 290 290 288 288 287 287 285 281
291 291 291 293 292 292 291 291 291 292 291 290 291 291 291 291 294 293 291 290 290 289 289 289 290 289 291 292 287 286 286 286 290 291 290 290 291 291 288 285 283 282 280
289 289 290 291 291 291 290 289 287 290 288 289 287 288 287 289 294 293 291 289 287 287 287 287 287 288 290 291 287 286 286 286 285 285 285 287 288 288 288 285 284 283 281
287 288 289 290 289 290 288 289 288 288 288 287 286 286 287 288 291 293 292 288 288 287 287 286 286 289 289 290 290 286 286 286 287 285 285 285 284 284 284 284 284 284 283
288 288 288 288 288 288 288 287 287 288 287 286 285 285 285 286 288 291 292 290 290 287 286 285 286 289 289 290 288 290 290 286 285 285 284 284 283 283 283 283 282 282 281
287 286 286 286 287 287 287 287 287 287 287 286 285 284 284 285 286 289 290 290 290 286 286 287 288 288 288 287 288 290 285 285 285 284 284 283 283 283 282 280 279 279 279
286 286 286 286 286 286 287 287 287 286 286 285 285 284 284 284 285 286 286 286 286 286 287 286 287 287 287 286 285 286 285 285 284 284 283 283 282 281 280 280 279 278 277
285 284 285 285 285 284 285 285 285 285 287 285 285 285 284 283 285 287 287 286 286 286 285 285 285 284 284 284 284 283 284 284 283 283 282 282 281 279 279 278 277 276 275
282 283 283 284 284 283 283 283 287 287 287 286 286 285 285 287 287 288 289 289 289 287 285 284 283 283 280 282 282 281 282 283 284 283 283 282 280 279 278 277 277 275 275
280 280 280 281 282 282 282 281 280 283 285 285 286 286 286 285 286 287 288 287 287 286 283 283 282 282 282 281 281 281 280 282 282 282 281 280 279 278 277 277 276 275 274
279 279 280 279 279 279 280 280 278 276 274 273 279 281 283 282 282 284 284 280 276 277 276 275 274 274 274 274 275 276 278 279 279 280 280 278 277 278 277 276 275 275 274
277 277 276 276 276 276 275 274 273 272 270 269 269 271 272 278 277 277 277 272 269 268 268 268 268 268 269 269 269 270 271 272 273 274 275 274 274 275 276 276 276 274 274
274 275 275 274 273 273 272 271 269 268 267 267 266 265 265 266 265 264 263 264 264 263 263 263 264 265 266 265 266 266 267 267 267 268 268 269 270 270 271 272 274 274 274
271 271 271 271 270 270 269 268 267 266 265 265 264 270 268 263 262 261 260 260 261 261 261 262 262 264 262 261 261 262 261 262 262 263 263 264 265 265 267 269 270 272 273
269 269 268 267 267 266 266 266 265 264 263 263 262 265 266 260 260 259 259 259 259 259 259 260 259 259 258 258 258 258 258 258 258 259 260 260 261 263 264 265 266 267 268
267 266 266 265 264 264 263 263 263 262 261 260 260 260 260 259 259 259 259 258 257 256 256 257 256 256 255 254 255 256 256 257 257 257 258 259 259 261 262 263 263 264 265
266 265 264 264 263 263 262 261 261 261 260 259 259 259 258 257 257 257 256 256 256 254 252 251 253 253 252 253 254 253 253 253 254 256 257 257 258 259 260 260 262 263 263
264 263 263 262 262 261 260 260 260 259 259 259 258 258 256 256 255 255 254 253 252 251 252 250 251 251 251 251 252 252 252 256 256 255 256 256 258 258 259 260 261 261 261
261 261 260 260 260 259 259 259 259 258 258 257 256 255 254 254 254 253 253 250 251 252 252 251 251 251 251 252 252 254 258 261 260 259 260 260 259 259 258 258 259 259 260
Wind_Speed
20 21 21 19 21 19 17 18 17 14 15 15 15 15 15 15 14 13 13 13 15 14 12 12 14 13 10 8 7 7 8 8 10 4 3 4 7 9 8 10 9 10 10
20 20 21 19 19 19 19 18 15 16 15 16 14 14 14 14 13 14 15 13 15 14 14 13 14 8 11 9 7 10 9 8 7 11 3 3 4 7 9 11 8 8 8
18 19 18 18 18 20 19 16 14 15 14 14 13 14 13 14 14 14 15 14 14 13 13 12 12 8 9 8 9 7 7 6 7 3 4 2 1 2 3 3 7 6 5
16 18 19 19 19 18 17 16 15 15 14 14 13 12 13 13 12 12 12 11 12 11 10 9 9 10 10 8 6 7 5 5 4 3 3 3 2 2 1 4 6 7 7
15 17 18 17 15 15 14 13 12 13 11 11 11 11 10 10 8 10 10 9 7 6 4 3 3 4 7 7 4 5 5 4 3 4 2 2 4 4 8 5 7 5 6
15 16 14 13 12 13 11 11 11 9 9 8 8 8 7 4 8 8 7 6 6 6 5 4 3 3 3 6 8 8 6 5 4 3 2 4 6 4 4 4 4 3 3
12 9 10 12 12 10 10 11 10 10 8 7 7 8 7 6 10 10 10 6 6 5 4 4 2 1 1 2 3 5 7 8 3 5 5 7 2 6 6 6 8 6 5
6 6 7 9 10 9 10 10 9 7 9 8 7 7 8 5 10 9 8 6 5 5 4 4 3 2 2 3 2 0 1 1 3 3 4 2 3 4 5 4 6 3 3
7 8 8 11 11 11 11 11 9 11 9 6 6 8 8 6 11 12 9 6 6 6 5 5 4 4 1 4 4 3 2 1 1 3 4 3 2 5 5 4 2 3 1
5 7 7 9 10 10 11 11 5 8 10 8 8 7 8 7 10 11 8 5 6 4 4 5 6 4 3 1 3 2 1 0 2 2 2 2 3 5 9 3 5 2 1
5 8 9 9 10 11 8 9 9 11 11 10 11 7 8 7 8 11 10 5 5 5 4 4 2 5 5 4 4 3 2 3 2 2 2 2 2 3 4 4 3 2 2
6 10 10 10 8 8 12 10 9 11 12 10 11 8 5 6 8 11 12 10 8 6 5 3 3 7 7 7 4 2 5 5 3 3 1 0 1 2 2 3 4 3 3
7 10 10 10 8 8 11 10 9 9 9 8 8 7 6 4 5 13 13 12 10 5 4 6 8 8 9 7 7 5 5 2 2 1 1 1 1 1 2 2 1 1 3
10 10 9 9 10 9 8 7 7 7 8 8 8 7 6 5 6 4 4 6 10 7 7 4 6 8 9 6 3 4 2 1 1 1 0 1 1 0 1 1 2 1 2
10 10 11 9 10 11 9 7 8 6 7 8 6 6 7 6 4 7 6 5 5 7 6 3 3 4 4 5 4 3 3 1 1 1 1 2 2 1 2 1 2 1 4
10 7 9 10 9 9 11 13 22 21 22 19 16 10 6 11 11 11 10 11 12 11 3 3 4 4 2 3 3 2 1 2 1 3 3 3 3 3 3 2 3 4 6
10 9 9 11 9 9 9 11 14 16 22 20 18 16 15 15 12 10 16 17 13 10 5 4 4 5 4 4 4 3 2 1 1 1 2 3 3 3 3 4 4 5 6
9 14 11 7 7 7 7 9 9 10 9 7 14 12 15 15 14 12 14 11 7 7 5 5 5 4 5 5 5 5 5 5 3 2 2 3 3 4 4 4 5 6 6
9 11 9 8 7 7 7 7 7 9 8 7 4 8 8 16 17 18 15 6 5 5 4 5 3 3 4 4 4 4 5 4 5 5 6 5 5 5 6 5 6 7 8
12 15 11 9 8 7 7 7 8 7 7 6 4 2 1 3 5 5 6 4 5 4 4 4 3 4 4 4 4 4 3 4 5 5 5 5 5 5 6 7 6 7 7
9 9 12 10 7 6 6 6 6 6 6 6 5 6 12 6 6 5 4 4 4 4 3 3 3 3 3 3 3 3 3 3 3 3 3 4 4 5 6 6 7 7 8
9 8 8 8 6 7 6 5 6 6 6 7 5 6 12 5 5 4 3 3 3 2 2 2 2 2 1 2 2 2 2 3 3 4 4 3 4 5 5 5 6 7 7
9 9 8 7 6 7 6 5 5 6 6 6 5 4 3 3 3 3 2 2 1 1 1 2 1 1 1 1 1 1 0 1 3 3 3 3 4 5 4 5 6 6 7
7 8 7 6 5 5 6 6 6 7 6 4 3 3 2 2 1 1 1 1 0 1 1 3 3 3 3 3 2 1 2 3 4 4 5 3 4 4 4 4 5 6 7
6 6 6 6 5 5 5 5 4 4 3 3 3 2 1 1 2 2 1 1 2 3 4 3 3 4 6 6 5 6 6 8 6 5 3 4 5 5 4 4 5 5 6
6 7 6 5 5 4 4 3 3 2 2 2 2 2 2 2 2 2 3 3 4 3 4 3 5 7 7 5 6 8 8 8 7 8 6 4 4 4 4 4 6 4 6
Wind_Direction
210 205 208 208 202 199 198 200 198 192 186 184 189 193 197 199 199 201 207 208 212 219 217 215 222 219 220 217 207 208 220 229 248 215 189 164 177 188 186 190 191 190 204
206 205 205 204 200 197 198 198 186 189 184 188 188 191 197 196 197 200 207 209 210 212 214 217 226 225 224 218 204 213 217 221 234 251 163 184 197 204 203 186 196 195 199
202 203 203 200 197 198 197 189 177 186 184 183 188 196 199 200 201 201 209 206 206 212 214 213 224 209 217 211 218 216 215 212 219 178 178 148 130 174 146 161 195 196 205
200 200 198 198 197 198 192 184 175 184 180 182 190 197 200 200 200 200 202 203 204 208 207 203 212 205 216 211 203 210 201 193 185 157 155 151 147 186 133 195 208 195 210
201 199 199 196 194 192 184 177 169 170 176 176 178 193 199 197 190 186 190 191 180 171 145 147 199 195 204 210 185 204 196 199 166 176 156 144 167 179 202 191 215 183 211
204 203 190 175 169 182 161 151 152 152 154 154 167 168 156 119 121 124 142 135 142 155 177 183 199 195 237 245 236 225 194 193 193 177 158 208 205 196 162 174 165 143 227
203 182 168 156 156 161 145 143 141 140 124 127 126 125 119 116 122 121 129 139 142 158 162 172 175 145 267 300 308 279 250 228 162 175 197 216 190 197 147 185 194 192 199
174 151 147 139 133 131 130 130 119 119 123 124 118 117 119 121 126 126 120 116 118 122 130 109 120 122 122 183 182 155 263 229 211 187 190 223 234 174 179 184 204 181 68
160 149 148 135 134 136 131 128 123 120 116 107 116 113 111 105 126 128 120 116 127 109 100 95 101 108 129 163 149 170 195 217 104 134 150 139 124 180 159 107 126 128 236
139 123 115 114 126 127 120 119 96 101 108 107 94 96 106 110 118 117 122 124 108 112 92 88 82 92 78 83 136 134 96 88 168 116 99 98 116 146 159 103 145 186 159
105 107 101 101 108 109 108 107 112 113 111 105 102 92 94 92 94 120 116 108 118 112 104 95 80 70 60 53 76 125 129 140 122 119 133 124 131 153 154 161 164 167 187
105 104 103 104 109 112 112 104 110 116 112 110 106 92 77 88 95 93 103 115 117 106 101 107 90 71 65 64 79 79 137 106 89 90 63 88 254 227 188 157 161 178 198
104 97 95 96 99 100 107 112 111 110 113 112 111 108 104 91 86 82 86 91 102 91 112 111 97 88 75 64 59 80 106 111 109 122 181 237 220 199 127 120 120 186 213
108 103 104 107 101 92 89 96 105 110 112 115 116 119 118 101 84 79 87 89 89 92 105 107 98 84 79 76 56 56 118 165 122 278 304 323 105 154 268 193 253 209 274
122 121 113 104 101 97 86 88 88 67 104 112 108 120 121 104 110 122 120 120 123 129 121 103 91 78 73 75 61 47 69 104 102 220 248 244 263 255 277 166 257 255 259
117 127 123 111 109 108 108 100 85 88 89 93 97 97 91 108 112 111 108 112 122 121 82 105 93 76 68 55 63 61 68 60 19 343 280 259 262 252 267 251 229 234 258
129 139 107 107 118 119 112 114 112 90 87 87 93 95 89 86 77 113 95 82 91 102 103 91 76 69 54 53 31 14 337 326 12 330 300 294 289 288 268 270 261 256 265
130 106 97 99 98 100 114 116 116 118 111 82 61 87 86 84 76 96 101 90 74 58 75 83 77 56 48 40 28 18 16 7 338 326 348 337 304 288 285 273 266 267 263
107 88 93 90 83 100 105 97 101 104 103 100 80 61 45 87 75 69 70 79 103 86 73 77 66 67 68 60 41 39 22 23 16 11 20 10 353 328 310 290 278 262 265
86 95 102 106 101 99 95 97 96 94 91 93 94 95 85 67 61 57 52 71 84 80 65 71 57 63 62 50 28 23 34 31 28 25 7 5 2 346 332 328 311 292 280
93 90 95 85 88 91 95 103 107 110 119 109 93 84 86 103 103 96 95 83 81 82 87 81 61 47 48 48 46 24 18 18 17 21 8 4 351 335 327 319 315 313 303
88 85 82 94 99 95 104 110 117 115 110 105 87 64 85 81 94 98 96 88 82 84 80 82 78 77 59 48 51 38 3 355 356 358 353 341 332 323 312 313 312 310 310
87 94 95 91 91 108 100 93 96 94 93 87 92 93 87 102 108 101 107 98 55 32 65 51 75 334 293 285 211 223 252 302 279 276 278 288 299 303 307 315 317 316 317
88 92 98 104 105 98 95 92 86 86 99 107 110 114 116 113 119 146 170 139 105 299 271 236 230 239 280 279 268 275 260 257 247 247 250 261 277 288 291 286 297 302 301
86 94 88 89 89 94 98 91 94 107 114 123 128 137 142 197 224 236 248 254 250 245 244 234 233 245 252 260 276 277 261 265 253 243 249 243 250 264 264 267 283 294 296
80 85 91 92 87 85 92 113 122 126 140 154 174 198 215 239 258 269 263 251 248 250 257 249 246 247 261 263 261 268 267 274 268 258 246 234 244 250 252 260 276 284 285